STAR VIBE (55009 NORAD) Tracking and Keplerian Element Data

This shows tracking and keplerian element data for the satellite.

Feedback or suggestion? Click here.




ElementValue
Catalog55009
NameSTAR VIBE
Epoch Orbit1244
Epoch Day84.91705843
Epoch Year2023
RAAN145.555
Inclination97.4863
Eccentricity0.0009008
Argument of Perigee318.2503
Mean Anonmoly41.804
Mean Motion15.12957774
Decay Rate9.819E-05
L11 55009U 23001A 23084.91705843 .00009819 00000+0 55967-3 0 9990
L22 55009 97.4863 145.5550 0009008 318.2503 41.8040 15.12957774 12448



Live tracking and technical data element details for STAR VIBE (NORAD 55009). STAR VIBE can be tracked NOW for your location showing map with azimuth and elevation plus other details from your city location.







IsCatalogInMostPopularTable: catalog: 55009, numindb: 11
Update: records affected: 1



GetName: 55009 STAR VIBE

Hit Count: updated at: Mon, 27 Mar 2023 08:27:50 GMT